Weather History for Kimball, NE

Change the Weather History Date:

Wednesday, October 30, 2013

  Actual Average (KSNY) Record (KSNY)
Temperature  
Mean Temperature 42 °F 45 °F  
Max Temperature 52 °F 60 °F 83 °F (1950)
Min Temperature 33 °F 31 °F 4 °F (1991)
Degree Days  
Heating Degree Days 22 20  
Month to date heating degree days 444  
Since 1 July heating degree days 584  
Cooling Degree Days 0 0  
Month to date cooling degree days 1  
Year to date cooling degree days 827  
Moisture  
Dew Point 30 °F    
Average Humidity 72    
Maximum Humidity 95    
Minimum Humidity 31    
Precipitation  
Precipitation 0.02 in 0.02 in 0.74 in (1979)
Month to date precipitation 1.00  
Year to date precipitation 17.41  
Sea Level Pressure  
Sea Level Pressure 29.83 in    
Wind  
Wind Speed 11 mph (West)    
Max Wind Speed 24 mph    
Max Gust Speed 32 mph    
Visibility 8 miles    
Events Rain , Snow    
T = Trace of Precipitation, MM = Missing Value Source: NWS Daily Summary

Daily Weather History Graph

Daily Weather History Graph

Search for Another Location

Airport:

Trip Planner

Search our weather history database for the weather conditions in past years. The results will help you decide how hot, cold, wet, or windy it might be!

Date:

Astronomy

Oct. 30, 2013 Rise Set
Actual Time 8:23 AM CDT 6:52 PM CDT
Civil Twilight 7:55 AM CDT 7:20 PM CDT
Nautical Twilight 7:22 AM CDT 7:53 PM CDT
Astronomical Twilight 6:50 AM CDT 8:25 PM CDT
Moon 4:12 AM CDT (10/30) 4:40 PM CDT (10/30)
Length of Visible Light 11h 25m
Length of Day
10h 28m
Waning Crescent, 17% of the Moon is Illuminated
Oct 30
Waning Crescent
Nov 3
New
Nov 9
First Quarter
Nov 17
Full
Nov 25
Last Quarter

Hourly Weather History & Observations

Time (CDT) Temp. Windchill Dew Point Humidity Pressure Visibility Wind Dir Wind Speed Gust Speed Precip Events Conditions
12:15 AM 35.6 °F 28.0 °F 32.9 °F 90% 29.96 in 10.0 mi SSE 10.4 mph - N/A   Overcast
12:35 AM 35.6 °F 28.6 °F 33.1 °F 91% 29.95 in 10.0 mi SSE 9.2 mph - N/A   Overcast
12:55 AM 35.6 °F 31.7 °F 32.9 °F 90% 29.92 in 10.0 mi SSE 4.6 mph - N/A   Overcast
1:15 AM 35.6 °F 31.7 °F 33.1 °F 91% 29.91 in 7.0 mi West 4.6 mph - N/A   Overcast
1:35 AM 35.6 °F 31.7 °F 33.3 °F 91% 29.90 in 7.0 mi NW 4.6 mph - N/A Rain Light Rain
1:55 AM 35.6 °F 28.6 °F 33.4 °F 92% 29.88 in 7.0 mi SE 9.2 mph - N/A   Light Drizzle
2:15 AM 35.6 °F 29.9 °F 33.4 °F 92% 29.84 in 7.0 mi ESE 6.9 mph - N/A   Overcast
2:35 AM 35.1 °F 27.4 °F 33.1 °F 92% 29.86 in 7.0 mi SE 10.4 mph - N/A   Overcast
2:55 AM 34.9 °F 27.7 °F 32.9 °F 92% 29.84 in 7.0 mi SE 9.2 mph - N/A   Overcast
3:15 AM 34.7 °F 28.1 °F 32.9 °F 93% 29.84 in 5.0 mi SE 8.1 mph - N/A   Overcast
3:35 AM 34.7 °F 28.1 °F 32.9 °F 93% 29.83 in 5.0 mi ESE 8.1 mph - N/A   Overcast
3:55 AM 34.3 °F 27.7 °F 32.5 °F 93% 29.83 in 4.0 mi SE 8.1 mph - N/A   Overcast
4:15 AM 34.7 °F 23.7 °F 32.9 °F 93% 29.90 in 7.0 mi SSW 19.6 mph 25.3 mph N/A   Overcast
4:35 AM 33.8 °F 27.0 °F 32.0 °F 93% 29.88 in 1.0 mi SSW 8.1 mph 13.8 mph N/A Snow Light Snow
4:55 AM 33.8 °F - 32.0 °F 93% 29.86 in 1.2 mi Calm Calm - N/A Snow Light Snow
5:15 AM 33.4 °F 29.1 °F 32.0 °F 94% 29.83 in 3.0 mi SE 4.6 mph - N/A Snow Light Snow
5:35 AM 33.3 °F 27.1 °F 32.0 °F 95% 29.81 in 3.0 mi East 6.9 mph - N/A   Overcast
5:55 AM 33.3 °F 27.1 °F 32.0 °F 95% 29.82 in 2.0 mi SSE 6.9 mph - N/A   Overcast
6:15 AM 33.4 °F 27.3 °F 32.0 °F 94% 29.84 in 0.8 mi SSW 6.9 mph - N/A   Overcast
6:35 AM 33.8 °F 27.0 °F 32.2 °F 94% 29.83 in 0.8 mi SSW 8.1 mph - N/A   Overcast
6:55 AM 33.8 °F 27.0 °F 32.2 °F 94% 29.83 in 0.8 mi SW 8.1 mph - N/A   Overcast
7:15 AM 34.0 °F 26.0 °F 32.5 °F 94% 29.83 in 7.0 mi SW 10.4 mph - N/A   Overcast
7:35 AM 34.0 °F 27.2 °F 32.5 °F 94% 29.83 in 2.5 mi SSW 8.1 mph - N/A   Overcast
7:55 AM 34.2 °F 27.5 °F 32.7 °F 94% 29.83 in 2.5 mi SSW 8.1 mph - N/A   Overcast
8:15 AM 34.2 °F 27.5 °F 32.9 °F 95% 29.83 in 1.5 mi SSW 8.1 mph - N/A   Overcast
8:35 AM 34.7 °F 25.9 °F 33.1 °F 94% 29.83 in 2.0 mi SW 12.7 mph - N/A   Overcast
8:55 AM 34.7 °F 26.9 °F 33.3 °F 94% 29.82 in 2.5 mi SW 10.4 mph - 0.01 in   Overcast
9:15 AM 34.7 °F 28.1 °F 33.3 °F 94% 29.83 in 4.0 mi SW 8.1 mph - 0.01 in   Mostly Cloudy
9:35 AM 36.1 °F 27.7 °F 34.5 °F 94% 29.84 in 10.0 mi WSW 12.7 mph - 0.01 in   Scattered Clouds
9:55 AM 37.4 °F 28.9 °F 34.7 °F 90% 29.84 in 10.0 mi WSW 13.8 mph - 0.01 in   Clear
10:15 AM 38.3 °F 30.9 °F 34.9 °F 87% 29.84 in 10.0 mi West 11.5 mph - N/A   Clear
10:35 AM 39.4 °F 31.8 °F 35.4 °F 86% 29.84 in 10.0 mi West 12.7 mph - N/A   Clear
10:55 AM 41.4 °F 34.0 °F 35.8 °F 81% 29.84 in 10.0 mi WNW 13.8 mph - N/A   Clear
11:15 AM 42.1 °F 34.9 °F 35.1 °F 76% 29.84 in 10.0 mi WNW 13.8 mph 19.6 mph N/A   Clear
11:35 AM 43.0 °F 35.7 °F 34.7 °F 73% 29.84 in 10.0 mi WNW 15.0 mph 19.6 mph N/A   Clear
11:55 AM 44.8 °F 38.7 °F 36.1 °F 72% 29.83 in 10.0 mi NW 12.7 mph 16.1 mph N/A   Clear
12:15 PM 46.4 °F 41.1 °F 33.8 °F 62% 29.83 in 10.0 mi NW 11.5 mph - N/A   Clear
12:35 PM 47.3 °F - 33.1 °F 58% 29.84 in 10.0 mi NW 12.7 mph - N/A   Clear
12:55 PM 48.4 °F - 32.9 °F 55% 29.83 in 10.0 mi NW 13.8 mph 18.4 mph N/A   Clear
1:15 PM 48.9 °F - 30.9 °F 50% 29.82 in 10.0 mi NW 15.0 mph 25.3 mph N/A   Clear
1:35 PM 50.4 °F - 29.1 °F 44% 29.81 in 10.0 mi WNW 18.4 mph 24.2 mph N/A   Clear
1:55 PM 51.6 °F - 25.9 °F 37% 29.80 in 10.0 mi NW 18.4 mph 27.6 mph N/A   Clear
2:15 PM 52.2 °F - 26.1 °F 36% 29.80 in 10.0 mi West 19.6 mph 27.6 mph N/A   Clear
2:35 PM 52.3 °F - 26.1 °F 36% 29.79 in 10.0 mi NW 16.1 mph - N/A   Clear
2:55 PM 52.7 °F - 24.1 °F 33% 29.78 in 10.0 mi NW 17.3 mph 25.3 mph N/A   Clear
3:15 PM 52.5 °F - 23.5 °F 32% 29.78 in 10.0 mi WNW 21.9 mph 32.2 mph N/A   Clear
3:35 PM 52.5 °F - 24.4 °F 34% 29.77 in 10.0 mi WNW 20.7 mph 29.9 mph N/A   Clear
3:55 PM 52.5 °F - 23.4 °F 32% 29.77 in 10.0 mi WNW 21.9 mph 26.5 mph N/A   Clear
4:15 PM 52.7 °F - 23.2 °F 32% 29.77 in 10.0 mi WNW 24.2 mph 27.6 mph N/A   Clear
4:35 PM 52.5 °F - 22.8 °F 31% 29.78 in 10.0 mi WNW 20.7 mph 27.6 mph N/A   Clear
4:55 PM 51.4 °F - 22.6 °F 32% 29.78 in 10.0 mi WNW 16.1 mph 26.5 mph N/A   Clear
5:15 PM 50.9 °F - 23.0 °F 34% 29.78 in 10.0 mi WNW 20.7 mph 26.5 mph N/A   Clear
5:35 PM 50.5 °F - 22.5 °F 33% 29.78 in 10.0 mi WNW 20.7 mph 27.6 mph N/A   Clear
5:55 PM 48.7 °F - 25.2 °F 40% 29.78 in 10.0 mi WNW 11.5 mph - N/A   Clear
6:15 PM 47.8 °F - 25.9 °F 42% 29.79 in 10.0 mi WNW 12.7 mph - N/A   Clear
7:55 PM 43.5 °F 37.1 °F 27.9 °F 54% 29.82 in 10.0 mi West 12.7 mph - N/A   Clear
8:15 PM 42.8 °F 35.8 °F 27.9 °F 56% 29.82 in 10.0 mi West 13.8 mph - N/A   Clear
8:35 PM 41.4 °F 34.7 °F 28.4 °F 60% 29.83 in 10.0 mi West 11.5 mph - N/A   Clear
8:55 PM 40.6 °F 33.8 °F 28.9 °F 63% 29.83 in 10.0 mi West 11.5 mph - N/A   Clear
9:15 PM 38.8 °F 32.6 °F 29.1 °F 68% 29.82 in 10.0 mi West 9.2 mph - N/A   Clear
9:35 PM 39.0 °F 31.0 °F 28.9 °F 67% 29.82 in 10.0 mi West 13.8 mph - N/A   Scattered Clouds
9:55 PM 40.6 °F 33.4 °F 28.2 °F 61% 29.82 in 10.0 mi West 12.7 mph - N/A   Clear
10:15 PM 37.6 °F 31.6 °F 28.8 °F 70% 29.82 in 10.0 mi WNW 8.1 mph - N/A   Clear
10:35 PM 36.1 °F 29.3 °F 28.8 °F 75% 29.82 in 10.0 mi WNW 9.2 mph - N/A   Clear
10:55 PM 36.7 °F 28.4 °F 28.0 °F 71% 29.82 in 10.0 mi West 12.7 mph - N/A   Scattered Clouds
11:15 PM 37.2 °F 31.2 °F 27.9 °F 69% 29.81 in 10.0 mi WSW 8.1 mph - N/A   Scattered Clouds
11:35 PM 37.6 °F 30.5 °F 26.6 °F 65% 29.82 in 10.0 mi West 10.4 mph - N/A   Clear
11:55 PM 34.3 °F 27.0 °F 27.1 °F 75% 29.81 in 10.0 mi WSW 9.2 mph - N/A   Scattered Clouds